Date,TemperatureHighF,TemperatureAvgF,TemperatureLowF,DewpointHighF,DewpointAvgF,DewpointLowF,HumidityHigh,HumidityAvg,HumidityLow,PressureMaxIn,PressureMinIn,WindSpeedMaxMPH,WindSpeedAvgMPH,GustSpeedMaxMPH,PrecipitationSumIn
2014-1-1,66,57,51,42,28,19,54,32,23,30.16,30.07,0,0,2,0.00
2014-1-2,67,58,53,33,28,-100,41,32,24,30.12,30.00,1,0,7,0.00
2014-1-3,68,58,54,43,34,26,52,40,29,30.00,29.90,0,0,1,0.00
2014-1-4,68,57,51,40,27,10,65,34,15,30.02,29.90,1,0,12,0.00
2014-1-5,66,57,51,28,13,6,33,18,14,30.14,29.98,2,0,17,0.00
2014-1-6,63,56,52,38,32,22,54,40,27,30.22,30.10,0,0,7,0.00
2014-1-7,58,52,48,48,38,29,94,60,39,30.16,30.08,0,0,6,0.00
2014-1-8,54,50,48,49,47,46,95,91,77,30.17,30.09,0,0,3,0.00
2014-1-9,59,51,47,50,44,35,95,77,56,30.21,30.13,4,0,11,0.00
2014-1-10,60,52,47,47,43,37,89,70,56,30.25,30.13,0,0,1,0.00
2014-1-11,53,49,46,49,46,43,95,88,71,30.24,30.10,5,0,14,0.00
2014-1-12,59,51,43,45,37,-100,92,63,36,30.33,30.21,2,0,12,0.00
2014-1-13,65,55,46,35,32,30,62,43,28,30.38,30.27,2,0,20,0.00
2014-1-14,70,61,53,32,25,-100,41,27,19,30.38,30.23,1,0,14,0.00
2014-1-15,72,64,55,32,23,13,41,22,12,30.25,30.13,3,0,22,0.00
2014-1-16,73,65,58,24,17,7,24,16,10,30.14,30.06,1,0,17,0.00
2014-1-17,64,61,59,28,17,8,28,19,11,30.10,30.05,0,0,6,0.00
2014-1-18,73,63,58,29,18,-100,28,18,14,30.11,30.00,1,0,10,0.00
2014-1-19,70,60,54,34,27,18,42,29,19,30.06,29.99,0,0,10,0.00
2014-1-20,71,61,54,27,22,13,32,23,16,30.16,30.03,1,0,11,0.00
2014-1-21,70,60,54,32,22,12,37,23,16,30.19,30.09,1,0,11,0.00
2014-1-22,68,61,56,39,22,14,42,24,15,30.10,29.85,1,0,6,0.00
2014-1-23,67,58,52,42,23,-100,69,27,18,29.94,29.80,2,0,20,0.00
2014-1-24,67,58,50,42,33,24,66,41,25,30.21,29.94,1,0,6,0.00
2014-1-25,73,61,53,44,30,18,67,34,15,30.21,30.06,0,0,8,0.00
2014-1-26,68,58,47,47,35,23,94,48,24,30.07,29.96,0,0,7,0.00
2014-1-27,58,49,45,48,46,42,95,89,63,30.14,30.00,2,0,8,0.00
2014-1-28,63,54,49,54,49,-100,95,85,64,30.21,30.12,1,0,8,0.00
2014-1-29,56,54,48,54,52,47,96,95,94,30.15,29.94,3,0,10,0.00
2014-1-30,58,50,47,47,45,43,96,85,64,29.94,29.80,3,0,11,0.00
2014-1-31,58,49,44,44,36,25,86,64,28,30.03,29.85,4,0,11,0.00
2014-2-1,55,46,40,41,34,24,88,65,33,30.11,30.01,1,0,6,0.00
2014-2-2,49,44,41,41,38,-100,90,81,57,30.00,29.80,3,0,17,0.00
2014-2-3,52,44,39,40,37,34,90,76,56,30.03,29.94,2,0,7,0.00
2014-2-4,53,44,40,39,36,33,85,73,55,30.11,30.02,0,-4,2,0.00
2014-2-5,50,44,40,41,37,-100,90,80,61,30.15,30.00,1,0,8,0.00
2014-2-6,49,45,42,47,41,-100,95,91,89,30.00,29.84,1,-25,11,0.00
2014-2-7,50,49,47,48,47,46,96,95,91,30.04,29.93,1,0,11,0.00
2014-2-8,55,53,50,54,50,-100,96,94,93,30.10,29.99,5,0,16,0.00
2014-2-9,55,54,53,55,53,-100,100,99,96,30.10,30.01,0,0,5,0.00
2014-2-10,55,52,50,55,52,50,100,100,100,30.23,30.05,1,-4,8,0.00
2014-2-11,55,49,45,52,45,-100,100,93,77,30.20,30.12,0,-4,1,0.00
2014-2-12,57,51,44,52,46,-100,96,86,72,30.23,30.13,0,0,1,0.00
2014-2-13,67,57,50,56,50,-100,97,85,67,30.17,30.04,0,0,1,0.00
2014-2-14,58,54,52,56,52,49,98,91,82,30.12,30.00,0,0,1,0.00
2014-2-15,54,53,52,51,49,-100,95,90,85,30.00,29.93,0,0,1,0.00
2014-2-16,62,51,45,52,38,-100,96,69,30,30.16,29.98,0,-44,2,0.00
2014-2-17,59,51,45,44,40,35,85,67,43,30.12,30.03,2,0,8,0.00
2014-2-18,60,52,46,48,44,-100,90,76,53,30.15,30.05,4,0,12,0.00
2014-2-19,63,54,47,50,44,38,95,72,45,30.15,30.04,3,0,8,0.00
2014-2-20,67,56,46,42,35,-100,77,49,27,30.17,30.05,0,0,7,0.00
2014-2-21,66,58,51,47,40,32,80,53,30,30.06,29.93,0,0,1,0.00
2014-2-22,64,54,46,50,44,37,94,71,49,29.96,29.88,0,0,1,0.00
2014-2-23,66,54,44,52,47,42,96,79,55,29.98,29.90,0,0,1,0.00
2014-2-24,69,58,50,51,46,38,94,66,46,29.94,29.85,0,0,2,0.00
2014-2-25,55,50,47,50,47,46,96,91,75,29.93,29.86,0,0,7,0.00
2014-2-26,56,53,49,53,50,45,96,89,77,29.91,29.62,0,0,10,0.00
2014-2-27,60,54,51,51,47,41,96,79,54,29.84,29.47,1,0,8,0.00
2014-2-28,57,52,50,52,48,40,95,87,55,29.47,29.32,1,0,12,0.00
2014-3-1,64,54,50,51,47,44,92,75,54,29.76,29.42,1,0,10,0.00
2014-3-2,54,52,50,52,49,44,96,88,71,30.11,29.75,2,0,10,0.00
2014-3-3,55,52,50,50,47,45,91,83,73,30.11,29.99,2,0,12,0.00
2014-3-4,59,54,51,54,50,-100,96,90,82,30.08,30.00,1,0,10,0.00
2014-3-5,62,57,54,56,53,50,95,88,70,30.06,29.94,0,0,8,0.00
2014-3-6,59,54,50,55,51,46,96,90,70,30.14,29.99,0,0,3,0.00
2014-3-7,63,54,46,47,44,34,91,71,42,30.13,30.06,1,0,7,0.00
2014-3-8,70,58,50,53,46,37,91,65,42,30.15,30.05,0,0,1,0.00
2014-3-9,69,61,54,55,49,39,76,65,46,30.12,30.02,1,0,7,0.00
2014-3-10,67,57,50,53,46,37,95,69,43,30.18,30.03,2,0,12,0.00
2014-3-11,70,58,48,37,28,22,53,35,21,30.13,29.94,0,0,7,0.00
2014-3-12,73,61,50,33,26,20,41,27,18,30.06,29.92,1,0,14,0.00
2014-3-13,71,60,49,49,33,20,94,42,21,30.00,29.92,0,0,2,0.00
2014-3-14,67,56,49,50,47,42,94,75,52,30.17,29.99,0,0,7,0.00
2014-3-15,75,63,54,51,44,29,70,51,26,30.25,30.16,1,0,8,0.00
2014-3-16,70,61,49,54,43,29,88,54,27,30.25,30.13,0,0,3,0.00
2014-3-17,68,55,49,48,43,31,91,66,36,30.15,29.93,0,0,7,0.00
2014-3-18,68,57,48,41,30,17,72,38,20,29.92,29.85,0,0,6,0.00
2014-3-19,71,61,52,41,31,18,46,32,21,30.02,29.90,0,0,5,0.00
2014-3-20,66,58,47,50,40,24,89,54,26,29.99,29.89,0,0,8,0.00
2014-3-21,57,50,46,47,45,43,93,84,69,29.94,29.88,3,0,14,0.00
2014-3-22,58,50,45,48,45,43,93,83,64,30.07,29.93,3,0,10,0.00
2014-3-23,62,52,46,49,45,34,94,78,42,30.12,30.04,2,0,10,0.00
2014-3-24,72,58,48,50,43,33,89,60,32,30.10,29.96,0,0,5,0.00
2014-3-25,57,51,47,52,48,42,96,90,78,29.98,29.80,2,0,8,0.00
2014-3-26,56,51,47,50,48,46,96,91,73,29.92,29.75,1,0,11,0.00
2014-3-27,58,52,48,50,47,42,96,83,58,30.08,29.92,0,0,7,0.00
2014-3-28,63,55,51,51,48,46,94,79,57,30.14,30.06,2,0,10,0.00
2014-3-29,54,52,48,53,50,44,96,91,80,30.07,29.96,1,0,10,0.00
2014-3-30,56,50,46,46,44,40,92,81,61,30.08,29.99,1,0,7,0.00
2014-3-31,51,46,43,45,42,40,95,86,71,30.02,29.78,2,0,14,0.00
2014-4-1,51,45,41,46,42,39,95,90,70,29.88,29.78,2,0,14,0.00
2014-4-2,58,48,42,45,42,38,94,81,49,30.06,29.82,1,0,6,0.00
2014-4-3,57,50,46,47,45,42,94,82,64,30.07,29.99,2,0,10,0.00
2014-4-4,54,49,46,48,45,42,95,87,71,30.00,29.93,1,0,11,0.00
2014-4-5,63,52,45,48,45,43,94,77,53,30.13,30.00,2,0,10,0.00
2014-4-6,71,60,51,52,47,44,80,64,44,30.18,30.05,0,0,3,0.00
2014-4-7,80,68,59,52,48,42,70,50,26,30.09,30.00,0,0,1,0.00
2014-4-8,74,66,59,57,50,43,66,57,42,30.04,29.97,1,0,7,0.00
2014-4-9,62,54,48,52,49,45,96,85,56,30.03,29.94,1,0,7,0.00
2014-4-10,73,56,47,55,49,40,96,80,38,29.99,29.84,2,0,8,0.00
2014-4-11,62,52,49,52,48,39,96,89,46,29.90,29.82,2,0,12,0.00
2014-4-12,56,51,49,49,47,45,93,85,73,29.89,29.82,2,0,11,0.00
2014-4-13,65,54,49,53,48,45,94,82,62,30.00,29.89,4,0,11,0.00
2014-4-14,64,54,49,53,50,47,96,86,64,30.07,29.95,4,0,10,0.00
2014-4-15,61,54,49,52,48,45,95,84,67,30.01,29.85,3,0,12,0.00
2014-4-16,69,59,50,52,46,39,90,65,37,29.88,29.77,1,0,6,0.00
2014-4-17,65,58,52,51,48,42,90,69,53,29.81,29.73,2,0,7,0.00
2014-4-18,60,54,47,51,47,43,89,79,66,29.89,29.80,3,0,10,0.00
2014-4-19,60,52,47,52,48,44,95,86,67,30.06,29.89,3,0,13,0.00
2014-4-20,73,59,51,54,46,34,93,66,34,30.10,30.00,0,0,3,0.00
2014-4-21,63,54,49,49,44,27,94,70,30,30.02,29.91,1,0,8,0.00
2014-4-22,60,51,46,50,39,32,95,65,39,30.07,29.91,1,0,7,0.00
2014-4-23,64,53,45,47,39,34,81,60,42,30.10,30.03,2,0,8,0.00
2014-4-24,57,53,50,53,50,47,96,89,77,30.06,29.92,1,0,10,0.00
2014-4-25,54,50,46,53,48,42,96,94,77,29.92,29.74,1,0,11,0.00
2014-4-26,57,49,43,45,41,33,91,75,41,30.03,29.80,3,0,11,0.00
2014-4-27,57,51,47,50,46,42,95,83,64,30.08,29.96,5,0,16,0.00
2014-4-28,66,57,47,49,43,33,84,62,33,30.17,30.08,2,0,11,0.00
2014-4-29,84,70,55,50,40,33,54,37,20,30.14,29.98,0,0,3,0.00
2014-4-30,87,75,67,48,40,29,41,29,23,30.00,29.94,0,0,1,0.00
2014-5-1,83,74,67,50,37,24,40,26,18,30.02,29.94,0,0,1,0.00
2014-5-2,70,62,54,54,46,31,92,58,26,30.02,29.95,0,0,3,0.00
2014-5-3,61,54,50,51,50,46,95,84,67,29.98,29.93,0,0,5,0.00
2014-5-4,61,55,51,53,50,48,95,84,69,30.01,29.94,1,0,6,0.00
2014-5-5,60,54,49,50,47,39,94,77,53,29.99,29.89,1,0,6,0.00
2014-5-6,65,55,47,47,43,39,85,64,42,29.90,29.81,2,0,12,0.00
2014-5-7,62,54,48,48,45,42,91,74,50,29.93,29.82,1,0,10,0.00
2014-5-8,58,54,49,55,51,45,96,90,82,30.04,29.92,1,0,10,0.00
2014-5-9,63,56,50,55,49,41,96,79,55,30.10,30.03,3,0,8,0.00
2014-5-10,64,56,47,45,42,36,83,62,36,30.08,29.97,2,0,10,0.00
2014-5-11,77,64,51,43,35,25,73,37,15,30.04,29.96,0,0,5,0.00
2014-5-12,80,68,59,49,39,23,51,35,16,30.06,29.97,0,0,2,0.00
2014-5-13,86,75,66,46,35,25,42,25,17,30.06,29.99,0,0,1,0.00
2014-5-14,85,78,70,53,38,17,40,24,11,30.05,29.97,0,0,1,0.00
2014-5-15,83,74,66,55,36,16,45,26,11,30.03,29.97,0,0,1,0.00
2014-5-16,70,60,51,53,48,24,92,69,20,30.01,29.92,1,0,8,0.00
2014-5-17,60,55,51,52,50,43,93,82,62,29.95,29.88,5,0,17,0.00
2014-5-18,66,58,52,53,48,43,92,71,49,29.93,29.87,3,0,16,0.00
2014-5-19,60,55,51,51,48,44,89,79,60,29.91,29.85,3,0,14,0.00
2014-5-20,62,55,49,52,49,46,94,81,60,29.95,29.87,7,0,16,0.00
2014-5-21,64,56,51,53,50,49,94,84,62,29.92,29.86,7,1,20,0.00
2014-5-22,60,53,50,52,50,48,95,90,75,29.97,29.85,6,1,18,0.00
2014-5-23,62,55,49,54,51,48,96,86,64,29.98,29.88,5,1,14,0.00
2014-5-24,64,58,53,53,50,47,91,77,66,29.94,29.87,5,1,13,0.00
2014-5-25,75,63,53,54,48,42,86,60,35,29.93,29.85,5,0,14,0.00
2014-5-26,74,64,57,54,48,42,71,57,47,29.95,29.87,2,0,10,0.00
2014-5-27,70,59,49,50,46,40,92,64,39,29.98,29.92,7,1,13,0.00
2014-5-28,72,62,51,46,39,31,75,45,25,30.01,29.89,1,0,8,0.00
2014-5-29,71,60,51,51,43,35,89,56,29,29.89,29.84,4,0,14,0.00
2014-5-30,56,51,48,49,48,46,94,88,76,29.91,29.83,5,2,16,0.00
2014-5-31,60,52,49,51,49,48,95,88,69,29.92,29.86,5,1,16,0.00
2014-6-1,65,54,48,53,49,45,96,84,57,29.86,29.75,2,0,7,0.00
2014-6-2,57,52,48,51,49,47,96,90,77,29.85,29.76,9,3,19,0.00
2014-6-3,59,52,48,51,49,47,96,89,71,29.89,29.82,5,1,11,0.00
2014-6-4,66,55,49,54,50,47,96,85,59,29.86,29.78,2,0,8,0.00
2014-6-5,58,53,49,53,51,48,96,91,78,29.83,29.76,6,1,12,0.00
2014-6-6,60,53,50,54,51,49,97,92,74,29.81,29.75,5,1,11,0.00
2014-6-7,65,56,50,55,50,49,96,84,60,29.80,29.74,4,0,13,0.00
2014-6-8,89,74,52,58,52,32,91,51,22,29.77,29.66,1,0,6,0.00
2014-6-9,77,62,54,61,38,-100,95,53,29,29.69,29.63,2,-76,8,0.00
2014-6-10,57,54,53,55,53,52,97,95,87,29.78,29.65,10,3,18,0.00
2014-6-11,57,55,52,55,53,50,97,94,85,29.85,29.75,10,3,18,0.00
2014-6-12,60,54,50,52,50,46,97,86,71,29.92,29.84,6,2,18,0.00
2014-6-13,72,60,51,53,47,-100,91,67,39,29.93,29.86,6,-17,10,0.00
2014-6-14,73,60,52,55,50,46,88,68,49,29.87,29.75,4,-4,13,0.00
2014-6-15,64,54,50,52,49,48,94,84,59,29.78,29.72,5,1,19,0.00
2014-6-16,60,54,50,50,48,46,95,82,65,29.84,29.74,8,3,21,0.00
2014-6-17,67,59,50,50,44,33,88,60,30,29.91,29.81,7,1,16,0.00
2014-6-18,76,65,53,55,46,38,87,50,28,29.88,29.83,2,0,11,0.00
2014-6-19,65,56,50,52,50,49,95,82,58,29.95,29.86,5,1,13,0.00
2014-6-20,74,61,52,56,51,48,93,73,49,29.93,29.86,4,0,11,0.00
2014-6-21,62,55,51,50,49,47,93,82,61,29.87,29.82,10,1,18,0.00
2014-6-22,63,54,50,52,50,48,94,85,64,29.90,29.82,9,2,18,0.00
2014-6-23,68,58,50,53,50,45,96,77,49,29.91,29.85,8,1,19,0.00
2014-6-24,71,63,56,55,50,44,87,64,52,29.93,29.87,4,0,10,0.00
2014-6-25,60,56,53,58,55,52,96,94,83,29.95,29.86,8,-3,18,0.00
2014-6-26,62,58,55,58,55,52,99,90,76,29.94,29.90,2,0,10,0.00
2014-6-27,66,59,54,59,56,53,97,91,73,29.94,29.87,3,0,11,0.00
2014-6-28,74,62,54,56,53,47,96,75,43,29.90,29.84,1,0,8,0.00
2014-6-29,79,68,55,57,49,34,88,55,21,29.88,29.76,3,0,11,0.00
2014-6-30,77,67,55,58,51,37,96,60,28,29.77,29.73,2,0,10,0.00
2014-7-1,59,55,54,56,54,52,98,96,88,29.81,29.73,6,0,13,0.00
2014-7-2,63,57,53,58,54,52,98,89,73,29.84,29.77,0,0,2,0.00
2014-7-3,65,58,52,54,52,51,96,84,66,29.88,29.82,1,0,8,0.00
2014-7-4,64,56,53,55,52,51,96,89,69,29.94,29.83,1,0,6,0.00
2014-7-5,67,58,52,55,52,48,96,82,54,30.02,29.94,1,0,7,0.00
2014-7-6,69,58,51,56,52,45,96,81,59,30.00,29.88,1,0,5,0.00
2014-7-7,67,57,53,57,54,52,96,89,68,29.88,29.80,1,0,7,0.00
2014-7-8,60,56,54,56,54,53,96,93,80,29.88,29.79,0,0,3,0.00
2014-7-9,60,56,54,58,55,53,98,95,84,29.90,29.83,0,0,3,0.00
2014-7-10,63,58,56,58,56,54,99,92,76,29.89,29.83,0,0,7,0.00
2014-7-11,63,58,56,56,55,52,98,89,73,30.01,29.88,0,0,3,0.00
2014-7-12,63,58,54,56,54,53,96,88,76,30.04,29.97,1,0,6,0.00
2014-7-13,71,61,54,60,55,51,98,82,51,29.97,29.82,0,0,8,0.00
2014-7-14,71,64,56,58,54,47,96,72,43,29.87,29.78,0,0,2,0.00
2014-7-15,69,60,55,65,58,54,99,93,75,29.95,29.85,0,0,2,0.00
2014-7-16,64,60,58,63,58,56,100,94,81,29.98,29.91,0,0,1,0.00
2014-7-17,62,59,58,60,58,56,98,95,87,29.96,29.91,0,0,1,0.00
2014-7-18,62,59,58,60,57,55,99,93,79,29.97,29.90,0,0,2,0.00
2014-7-19,65,60,58,60,58,56,98,94,76,29.92,29.87,0,0,6,0.00
2014-7-20,63,60,59,62,59,57,99,95,83,29.94,29.86,1,0,7,0.00
2014-7-21,65,61,59,63,59,56,99,92,77,30.01,29.91,0,0,5,0.00
2014-7-22,67,62,59,61,58,55,97,89,67,30.04,29.97,0,0,5,0.00
2014-7-23,69,64,61,62,60,56,97,86,74,30.08,29.97,1,0,3,0.00
2014-7-24,79,68,58,61,56,46,97,69,40,29.98,29.78,1,0,6,0.00
2014-7-25,85,72,60,61,52,45,84,51,39,29.81,29.75,2,0,8,0.00
2014-7-26,72,63,57,59,56,47,96,79,42,29.89,29.79,0,0,1,0.00
2014-7-27,77,62,57,61,56,41,97,85,28,29.94,29.87,3,0,11,0.00
2014-7-28,64,59,57,60,57,55,98,92,76,30.00,29.91,2,0,8,0.00
2014-7-29,72,62,57,62,57,52,99,86,52,30.00,29.92,1,0,8,0.00
2014-7-30,71,60,57,60,57,56,98,90,64,29.96,29.89,1,0,7,0.00
2014-7-31,68,59,57,61,56,55,99,88,67,29.93,29.83,2,0,10,0.00
2014-8-1,70,60,57,59,57,55,97,87,64,29.88,29.82,2,0,10,0.00
2014-8-2,63,58,57,61,56,55,99,94,78,29.90,29.82,5,1,12,0.00
2014-8-3,61,58,56,60,57,54,100,96,80,29.92,29.85,4,2,14,0.00
2014-8-4,65,59,57,61,58,56,100,96,77,29.95,29.87,1,0,8,0.00
2014-8-5,71,63,59,62,59,58,99,88,69,30.01,29.94,1,0,5,0.00
2014-8-6,72,65,57,64,59,55,97,82,64,29.97,29.89,2,0,8,0.00
2014-8-7,63,59,57,61,56,55,99,91,76,29.92,29.84,7,2,16,0.00
2014-8-8,67,60,56,56,55,52,96,84,68,29.88,29.81,7,2,16,0.00
2014-8-9,59,56,55,56,54,52,97,93,81,29.92,29.83,7,3,20,0.00
2014-8-10,63,58,56,60,56,54,100,93,78,29.95,29.88,7,2,18,0.00
2014-8-11,65,60,58,58,57,54,97,88,70,29.91,29.84,8,1,12,0.00
2014-8-12,65,54,57,58,46,53,96,72,71,29.94,29.86,6,1,12,0.00
2014-8-13,68,60,56,58,56,54,95,85,67,29.96,29.86,5,1,12,0.00
2014-8-14,67,60,57,60,57,55,99,91,67,29.92,29.85,6,0,11,0.00
2014-8-15,69,60,57,62,58,56,100,92,67,29.96,29.88,4,0,10,0.00
2014-8-16,68,60,57,62,57,55,100,91,70,30.00,29.92,4,0,10,0.00
2014-8-17,65,60,56,60,57,55,99,91,74,29.98,29.87,4,1,11,0.00
2014-8-18,60,58,57,60,58,56,100,98,86,29.85,29.76,5,2,16,0.00
2014-8-19,63,60,57,62,58,57,100,96,86,29.81,29.76,6,2,16,0.00
2014-8-20,62,60,59,61,59,56,99,96,87,29.89,29.78,5,2,14,0.00
2014-8-21,68,62,59,64,59,55,100,91,71,29.92,29.84,5,0,10,0.00
2014-8-22,64,60,58,62,58,56,100,94,79,29.90,29.84,5,2,13,0.00
2014-8-23,66,60,57,58,56,54,98,85,68,29.91,29.81,6,1,14,0.00
2014-8-24,66,60,58,57,56,54,96,87,71,29.86,29.77,7,3,13,0.00
2014-8-25,64,60,58,57,55,54,93,86,74,29.89,29.77,8,3,18,0.00
2014-8-26,68,61,58,58,56,54,94,83,66,29.96,29.89,5,1,13,0.00
2014-8-27,74,63,59,60,58,56,97,87,57,30.01,29.93,5,0,12,0.00
2014-8-28,72,61,58,62,58,57,99,91,65,30.01,29.88,3,0,11,0.00
2014-8-29,69,61,58,64,59,56,100,93,71,29.90,29.82,4,1,14,0.00
2014-8-30,75,65,59,60,57,50,95,75,55,29.87,29.79,5,1,13,0.00
2014-8-31,73,63,59,60,58,55,99,84,60,29.87,29.77,6,1,14,0.00
2014-9-1,80,66,58,60,56,51,93,73,47,29.80,29.70,3,0,8,0.00
2014-9-2,62,59,58,60,58,57,99,96,87,29.80,29.71,7,1,14,0.00
2014-9-3,67,61,59,62,58,56,100,93,70,29.75,29.66,7,1,11,0.00
2014-9-4,64,60,58,61,58,56,99,94,75,29.74,29.65,7,1,13,0.00
2014-9-5,64,59,58,59,57,55,99,92,74,29.86,29.74,6,1,14,0.00
2014-9-6,66,59,57,57,55,53,96,87,67,29.91,29.83,5,1,13,0.00
2014-9-7,66,58,55,56,54,52,94,86,66,29.85,29.75,5,1,13,0.00
2014-9-8,62,57,54,54,52,50,93,86,70,29.88,29.78,5,1,16,0.00
2014-9-9,67,59,56,57,55,53,96,87,67,29.94,29.84,2,0,12,0.00
2014-9-10,86,67,57,61,55,44,98,69,34,29.89,29.77,0,0,3,0.00
2014-9-11,84,67,57,62,54,39,95,66,28,29.84,29.76,2,0,7,0.00
2014-9-12,85,66,57,62,56,40,97,74,34,29.84,29.74,1,0,6,0.00
2014-9-13,73,61,58,61,58,53,99,89,62,29.80,29.73,3,0,10,0.00
2014-9-14,72,62,58,59,57,52,98,85,53,29.82,29.74,1,0,7,0.00
2014-9-15,71,62,59,59,58,54,98,86,57,29.86,29.77,4,0,12,0.00
2014-9-16,74,64,60,61,58,55,97,84,57,29.87,29.75,3,0,11,0.00
2014-9-17,70,64,60,64,59,56,98,85,64,29.76,29.70,4,1,18,0.00
2014-9-18,68,66,65,66,64,61,98,95,83,29.82,29.70,4,1,17,0.00
2014-9-27,68,47,57,60,34,52,92,47,66,29.87,29.76,4,0,13,0.00
2014-9-28,66,60,59,58,57,55,96,88,74,29.90,29.75,3,0,6,0.00
2014-9-29,65,60,58,61,58,56,99,93,76,29.98,29.89,3,0,11,0.00
2014-9-30,69,63,58,60,56,47,98,79,49,29.91,29.79,2,0,8,0.00
2014-10-1,84,70,62,52,40,30,66,36,17,29.86,29.78,0,0,1,0.00
2014-10-2,89,72,67,46,33,30,44,22,16,29.97,29.86,0,0,1,0.00
2014-10-3,95,66,73,50,27,28,27,15,12,30.05,29.92,0,0,1,0.00
2014-10-4,89,54,74,51,23,27,32,13,15,30.00,29.84,0,0,1,0.00
2014-10-5,88,78,72,57,38,24,41,24,16,29.88,29.79,1,0,6,0.00
2014-10-6,87,76,69,60,43,32,59,32,20,29.85,29.76,0,0,2,0.00
2014-10-7,74,53,55,60,36,28,93,44,23,29.86,29.77,1,0,5,0.00
2014-10-8,83,68,56,60,49,34,94,55,20,29.86,29.79,1,0,6,0.00
2014-10-9,64,42,56,61,34,50,99,58,65,29.92,29.82,7,0,10,0.00
2014-10-10,64,51,56,59,45,52,99,73,72,30.01,29.92,9,1,13,0.00
2014-10-11,73,45,55,62,34,51,98,45,52,30.01,29.89,11,0,11,0.00
2014-10-12,90,73,64,54,38,16,65,31,10,29.92,29.82,0,0,3,0.00
2014-10-13,79,68,58,59,38,10,98,49,8,29.89,29.83,7,1,11,0.00
2014-10-14,65,55,58,60,44,53,99,66,67,29.88,29.76,13,2,25,0.00
2014-10-15,65,50,58,59,44,54,96,67,71,29.98,29.79,10,1,15,0.00
2014-10-16,61,16,55,53,8,46,84,12,68,29.98,29.87,8,0,11,0.00
2014-10-17,69,46,56,56,33,42,86,42,50,29.92,29.86,6,0,8,0.00
2014-10-18,69,34,60,59,27,52,84,39,70,29.94,29.82,0,0,0,0.00
2014-10-19,69,60,60,63,56,54,97,84,72,29.86,29.80,5,0,10,0.00
2014-10-20,64,52,56,60,42,50,97,65,75,30.00,29.83,9,1,13,0.00
2014-10-21,69,58,53,52,48,39,90,69,35,30.05,29.95,4,0,8,0.00
2014-10-22,69,56,54,57,48,44,84,68,52,30.03,29.96,2,0,7,0.00
2014-10-23,59,59,59,54,54,54,84,84,84,29.97,29.97,0,0,0,0.00
2014-10-25,60,35,58,57,34,56,94,56,90,30.08,30.00,0,0,2,0.00
2014-10-26,67,58,53,55,48,41,93,71,39,30.12,29.99,3,0,14,0.00
2014-10-27,66,57,51,50,47,44,81,68,49,30.01,29.95,1,0,7,0.00
2014-10-28,69,53,54,52,41,45,75,54,46,30.06,29.99,2,0,5,0.00
2014-10-29,80,62,59,51,39,39,70,38,27,30.05,29.90,1,0,8,0.00
2014-10-30,71,64,58,59,52,44,98,68,39,29.90,29.82,5,0,12,0.00
2014-10-31,60,57,55,58,55,51,97,92,81,29.84,29.66,6,1,13,0.00
2014-11-1,60,53,52,52,45,43,88,73,57,29.98,29.66,5,1,14,0.00
2014-11-2,64,56,49,52,45,38,89,68,42,30.11,29.98,4,0,7,0.00
2014-11-3,64,57,51,52,45,38,89,66,39,30.20,30.10,1,0,8,0.00
2014-11-4,70,61,52,53,46,36,94,60,28,30.26,30.17,0,0,6,0.00
2014-11-5,75,65,59,48,44,39,57,46,34,30.17,30.01,1,0,11,0.00
2014-11-6,71,63,58,56,50,45,80,63,52,30.16,30.07,3,0,6,0.00
2014-11-7,70,60,56,59,50,50,91,70,56,30.16,30.03,0,0,1,0.00
2014-11-8,78,45,61,58,28,45,68,27,33,30.06,29.93,0,0,5,0.00
2014-11-9,72,48,60,59,38,46,81,46,55,29.93,29.75,0,0,0,0.00
2014-11-10,62,53,56,56,48,47,97,73,63,29.78,29.72,4,0,7,0.00
2014-11-11,59,55,54,56,48,46,97,78,67,29.91,29.77,8,1,14,0.00
2014-11-12,61,56,54,50,46,44,86,70,56,29.97,29.90,4,0,11,0.00
2014-11-13,61,58,54,60,57,50,98,96,86,30.02,29.86,4,0,19,0.00
2014-11-14,61,55,54,57,52,50,99,86,77,30.05,30.00,2,0,10,0.00
2014-11-15,63,54,51,51,46,46,90,72,58,30.13,30.02,0,0,3,0.00
2014-11-16,60,54,49,48,30,19,85,44,22,30.20,30.12,1,0,13,0.00
2014-11-17,64,55,49,39,30,21,63,40,25,30.17,30.04,1,0,14,0.00
2014-11-18,62,55,50,42,40,33,67,57,43,30.08,29.99,3,0,12,0.00
2014-11-19,59,56,51,58,47,30,98,74,36,30.08,29.93,8,1,25,0.00
2014-11-20,56,55,53,55,53,50,98,96,83,30.06,29.91,5,0,19,0.00
2014-11-21,58,55,51,53,51,49,96,88,75,30.06,29.97,4,0,12,0.00
2014-11-22,65,57,51,62,53,45,99,87,69,30.19,29.98,10,2,25,0.00
2014-11-23,64,54,48,46,40,35,88,62,38,30.28,30.17,0,0,5,0.00
2014-11-24,69,56,48,46,36,29,67,47,25,30.35,30.25,0,0,1,0.00
2014-11-25,66,43,52,48,29,32,65,38,40,30.40,30.26,1,0,2,0.00
2014-11-26,70,60,54,49,44,36,72,57,43,30.26,30.14,1,0,8,0.00
2014-11-27,69,60,52,54,46,39,94,61,49,30.13,29.99,0,0,1,0.00